GW2041 Weather Reports


Display with metric or nautical units.
time (UTC)temp
F
wind
direction
speed
MPH
gust
MPH
rain 1hr
in
rain 24hr
in
rain mn
in
humidity
%
barometer
mb
20260901085223 65 225 3.0 6.0 0.00 0.00 0.00 86 1017.2
20260901084221 64 180 2.0 6.0 0.00 0.00 0.00 86 1017.2
20260901081703 64 225 2.0 4.0 0.00 0.00 0.00 86 1016.8
20260901080220 64 225 4.0 7.0 0.00 0.00 0.00 87 1016.8
20260901075219 64 225 4.0 8.0 0.00 0.00 0.00 87 1016.6
20260901074225 63 338 2.0 5.0 0.00 0.00 0.00 87 1016.6
20260901073219 63 225 2.0 4.0 0.00 0.00 0.00 88 1016.5
20260901072218 62 248 3.0 4.0 0.00 0.00 0.00 88 1016.5
20260901071223 62 293 2.0 5.0 0.00 0.00 0.00 88 1016.6
20260901070218 61 225 2.0 5.0 0.00 0.00 0.00 88 1016.6
20260901065216 61 158 2.0 5.0 0.00 0.00 0.00 88 1016.5
20260901064659 60 180 2.0 4.0 0.00 0.00 0.00 88 1016.5
20260901063214 60 180 2.0 4.0 0.00 0.00 0.00 88 1016.1
20260901062214 60 338 1.0 4.0 0.00 0.00 0.00 88 1016.1
20260901061215 59 135 2.0 5.0 0.00 0.00 0.00 88 1016.1
20260901060215 59 225 2.0 3.0 0.00 0.00 0.00 88 1016.1
20260901055214 59 135 2.0 5.0 0.00 0.00 0.00 88 1016.0
20260901054214 59 180 2.0 3.0 0.00 0.00 0.00 88 1016.0
20260901053212 59 180 1.0 2.0 0.00 0.00 0.00 88 1016.0
20260901052211 59 158 1.0 3.0 0.00 0.00 0.00 88 1016.0
20260901051213 59 180 0.0 2.0 0.00 0.00 0.00 88 1015.6
20260901050212 59 248 0.0 2.0 0.00 0.00 0.00 88 1015.6
20260901045212 59 158 0.0 4.0 0.00 0.00 0.00 88 1016.1
20260901044214 59 248 0.0 1.0 0.00 0.00 0.00 88 1016.1
20260901043210 59 180 0.0 2.0 0.00 0.00 0.00 87 1016.0
20260901042648 59 180 2.0 7.0 0.00 0.00 0.00 88 1016.0
20260901041208 59 248 2.0 2.0 0.00 0.00 0.00 87 1015.3
20260901040638 59 248 2.0 3.0 0.00 0.00 0.00 87 1015.3
20260901035204 59 248 2.0 4.0 0.00 0.00 0.00 87 1015.3
20260901034212 60 0 2.0 0.0 0.00 0.00 0.00 87 1015.1
20260901033226 59 135 2.0 5.0 0.00 0.00 0.00 87 1015.1
20260901032231 60 0 2.0 5.0 0.00 0.00 0.00 87 1015.1
20260901031223 60 270 1.0 4.0 0.00 0.00 0.00 87 1015.1
20260901030217 60 225 2.0 3.0 0.00 0.00 0.00 86 1015.1
20260901025217 60 90 1.0 3.0 0.00 0.00 0.00 86 1015.0
20260901024216 60 203 1.0 3.0 0.00 0.00 0.00 86 1015.0
20260901023213 60 180 1.0 4.0 0.00 0.00 0.00 86 1015.0
20260901022214 60 203 1.0 3.0 0.00 0.00 0.00 86 1015.0
20260901021212 60 180 1.0 3.0 0.00 0.00 0.00 86 1014.9
20260901020211 60 225 1.0 4.0 0.00 0.00 0.00 86 1014.9
20260901015211 60 180 1.0 3.0 0.00 0.00 0.00 85 1015.1
20260901014208 60 203 1.0 3.0 0.00 0.00 0.00 85 1015.1
20260901013209 60 248 2.0 2.0 0.00 0.00 0.00 85 1015.1
20260901012208 60 158 1.0 3.0 0.00 0.00 0.00 85 1015.1
20260901011210 61 158 2.0 2.0 0.00 0.00 0.00 85 1015.0
20260901010209 61 158 2.0 6.0 0.00 0.00 0.00 85 1015.0
20260901005209 60 225 1.0 4.0 0.00 0.00 0.00 85 1014.6
20260901004209 60 248 2.0 3.0 0.00 0.00 0.00 85 1014.6
20260901003215 60 158 1.0 6.0 0.00 0.00 0.00 84 1014.8
20260901002209 60 270 2.0 6.0 0.00 0.00 0.00 84 1014.8
20260901001208 60 293 2.0 4.0 0.00 0.00 0.00 84 1014.9
20260901000207 60 225 2.0 4.0 0.00 0.00 0.00 84 1014.9
20260831235208 60 248 2.0 4.0 0.00 0.00 0.00 84 1014.9
20260831234643 60 248 2.0 4.0 0.00 0.00 0.00 84 1014.9
20260831233647 60 225 2.0 3.0 0.00 0.00 0.00 84 1014.8
20260831232208 60 180 1.0 3.0 0.00 0.00 0.00 83 1014.8
20260831231659 60 158 1.0 4.0 0.00 0.00 0.00 83 1014.8
20260831230643 60 135 1.0 3.0 0.00 0.00 0.00 83 1014.8
20260831225204 60 158 1.0 3.0 0.00 0.00 0.00 83 1015.0
20260831224204 60 180 2.0 4.0 0.00 0.00 0.00 83 1015.0
20260831223205 61 180 2.0 4.0 0.00 0.00 0.00 83 1015.4
20260831222206 61 225 2.0 6.0 0.00 0.00 0.00 82 1015.4
20260831221652 61 135 2.0 4.0 0.00 0.00 0.00 82 1015.3
20260831220151 61 135 2.0 4.0 0.00 0.00 0.00 82 1015.3
20260831215157 61 23 1.0 2.0 0.00 0.00 0.00 82 1015.2